Year,Month,Day,Hour,Minute,Value (Times are PST for temperature in C)
2016,01,19,00,00,3.80
2016,01,19,00,01,3.80
2016,01,19,00,02,3.70
2016,01,19,00,03,3.70
2016,01,19,00,04,3.70
2016,01,19,00,05,3.70
2016,01,19,00,06,3.70
2016,01,19,00,07,3.70
2016,01,19,00,08,3.80
2016,01,19,00,09,3.80
2016,01,19,00,10,3.80
2016,01,19,00,11,3.80
2016,01,19,00,12,3.80
2016,01,19,00,13,3.80
2016,01,19,00,14,3.80
2016,01,19,00,15,3.80
2016,01,19,00,16,3.80
2016,01,19,00,17,3.80
2016,01,19,00,18,3.80
2016,01,19,00,19,3.70
2016,01,19,00,20,3.70
2016,01,19,00,21,3.70
2016,01,19,00,22,3.70
2016,01,19,00,23,3.70
2016,01,19,00,24,3.70
2016,01,19,00,25,3.70
2016,01,19,00,26,3.70
2016,01,19,00,27,3.70
2016,01,19,00,28,3.70
2016,01,19,00,29,3.60
2016,01,19,00,30,3.60
2016,01,19,00,31,3.60
2016,01,19,00,32,3.60
2016,01,19,00,33,3.50
2016,01,19,00,34,3.40
2016,01,19,00,35,3.40
2016,01,19,00,36,3.30
2016,01,19,00,37,3.30
2016,01,19,00,38,3.30
2016,01,19,00,39,3.30
2016,01,19,00,40,3.30
2016,01,19,00,41,3.30
2016,01,19,00,42,3.30
2016,01,19,00,43,3.30
2016,01,19,00,44,3.30
2016,01,19,00,45,3.30
2016,01,19,00,46,3.20
2016,01,19,00,47,3.20
2016,01,19,00,48,3.20
2016,01,19,00,49,3.20
2016,01,19,00,50,3.20
2016,01,19,00,51,3.20
2016,01,19,00,52,3.10
2016,01,19,00,53,3.10
2016,01,19,00,54,3.00
2016,01,19,00,55,3.00
2016,01,19,00,56,2.90
2016,01,19,00,57,2.90
2016,01,19,00,58,2.90
2016,01,19,00,59,2.90
2016,01,19,01,00,2.90
2016,01,19,01,01,2.90
2016,01,19,01,02,2.90
2016,01,19,01,03,2.80
2016,01,19,01,04,2.80
2016,01,19,01,05,2.80
2016,01,19,01,06,2.80
2016,01,19,01,07,2.80
2016,01,19,01,08,2.80
2016,01,19,01,09,2.80
2016,01,19,01,10,2.90
2016,01,19,01,11,2.90
2016,01,19,01,12,2.90
2016,01,19,01,13,2.90
2016,01,19,01,14,2.90
2016,01,19,01,15,2.90
2016,01,19,01,16,2.80
2016,01,19,01,17,2.80
2016,01,19,01,18,2.80
2016,01,19,01,19,2.80
2016,01,19,01,20,2.70
2016,01,19,01,21,2.70
2016,01,19,01,22,2.70
2016,01,19,01,23,2.70
2016,01,19,01,24,2.60
2016,01,19,01,25,2.60
2016,01,19,01,26,2.60
2016,01,19,01,27,2.60
2016,01,19,01,28,2.60
2016,01,19,01,29,2.60
2016,01,19,01,30,2.60
2016,01,19,01,31,2.60
2016,01,19,01,32,2.70
2016,01,19,01,33,2.70
2016,01,19,01,34,2.70
2016,01,19,01,35,2.70
2016,01,19,01,36,2.70
2016,01,19,01,37,2.70
2016,01,19,01,38,2.70
2016,01,19,01,39,2.60
2016,01,19,01,40,2.60
2016,01,19,01,41,2.60
2016,01,19,01,42,2.60
2016,01,19,01,43,2.50
2016,01,19,01,44,2.50
2016,01,19,01,45,2.50
2016,01,19,01,46,2.60
2016,01,19,01,47,2.60
2016,01,19,01,48,2.60
2016,01,19,01,49,2.70
2016,01,19,01,50,2.70
2016,01,19,01,51,2.70
2016,01,19,01,52,2.70
2016,01,19,01,53,2.70
2016,01,19,01,54,2.70
2016,01,19,01,55,2.60
2016,01,19,01,56,2.60
2016,01,19,01,57,2.60
2016,01,19,01,58,2.60
2016,01,19,01,59,2.60
2016,01,19,02,00,2.60
2016,01,19,02,01,2.60
2016,01,19,02,02,2.60
2016,01,19,02,03,2.50
2016,01,19,02,04,2.50
2016,01,19,02,05,2.50
2016,01,19,02,06,2.50
2016,01,19,02,07,2.50
2016,01,19,02,08,2.60
2016,01,19,02,09,2.60
2016,01,19,02,10,2.60
2016,01,19,02,11,2.50
2016,01,19,02,12,2.50
2016,01,19,02,13,2.50
2016,01,19,02,14,2.40
2016,01,19,02,15,2.40
2016,01,19,02,16,2.40
2016,01,19,02,17,2.50
2016,01,19,02,18,2.50
2016,01,19,02,19,2.50
2016,01,19,02,20,2.40
2016,01,19,02,21,2.40
2016,01,19,02,22,2.40
2016,01,19,02,23,2.40
2016,01,19,02,24,2.40
2016,01,19,02,25,2.30
2016,01,19,02,26,2.30
2016,01,19,02,27,2.30
2016,01,19,02,28,2.30
2016,01,19,02,29,2.30
2016,01,19,02,30,2.30
2016,01,19,02,31,2.20
2016,01,19,02,32,2.20
2016,01,19,02,33,2.20
2016,01,19,02,34,2.20
2016,01,19,02,35,2.20
2016,01,19,02,36,2.10
2016,01,19,02,37,2.10
2016,01,19,02,38,2.00
2016,01,19,02,39,2.00
2016,01,19,02,40,2.00
2016,01,19,02,41,2.00
2016,01,19,02,42,2.10
2016,01,19,02,43,2.00
2016,01,19,02,44,2.00
2016,01,19,02,45,2.00
2016,01,19,02,46,2.00
2016,01,19,02,47,2.00
2016,01,19,02,48,2.00
2016,01,19,02,49,2.00
2016,01,19,02,50,2.00
2016,01,19,02,51,2.00
2016,01,19,02,52,2.00
2016,01,19,02,53,1.90
2016,01,19,02,54,1.90
2016,01,19,02,55,1.90
2016,01,19,02,56,1.90
2016,01,19,02,57,1.90
2016,01,19,02,58,1.90
2016,01,19,02,59,1.90
2016,01,19,03,00,2.00
2016,01,19,03,01,2.00
2016,01,19,03,02,2.00
2016,01,19,03,03,2.10
2016,01,19,03,04,2.10
2016,01,19,03,05,2.10
2016,01,19,03,06,2.10
2016,01,19,03,07,2.10
2016,01,19,03,08,2.10
2016,01,19,03,09,2.10
2016,01,19,03,10,2.10
2016,01,19,03,11,2.10
2016,01,19,03,12,2.10
2016,01,19,03,13,2.10
2016,01,19,03,14,2.10
2016,01,19,03,15,2.10
2016,01,19,03,16,2.10
2016,01,19,03,17,2.10
2016,01,19,03,18,2.00
2016,01,19,03,19,2.00
2016,01,19,03,20,2.00
2016,01,19,03,21,1.90
2016,01,19,03,22,1.90
2016,01,19,03,23,1.90
2016,01,19,03,24,1.90
2016,01,19,03,25,1.90
2016,01,19,03,26,2.00
2016,01,19,03,27,2.00
2016,01,19,03,28,2.00
2016,01,19,03,29,2.00
2016,01,19,03,30,2.00
2016,01,19,03,31,2.10
2016,01,19,03,32,2.10
2016,01,19,03,33,2.10
2016,01,19,03,34,2.10
2016,01,19,03,35,2.10
2016,01,19,03,36,2.20
2016,01,19,03,37,2.20
2016,01,19,03,38,2.20
2016,01,19,03,39,2.20
2016,01,19,03,40,2.20
2016,01,19,03,41,2.20
2016,01,19,03,42,2.20
2016,01,19,03,43,2.20
2016,01,19,03,44,2.20
2016,01,19,03,45,2.30
2016,01,19,03,46,2.30
2016,01,19,03,47,2.30
2016,01,19,03,48,2.30
2016,01,19,03,49,2.30
2016,01,19,03,50,2.30
2016,01,19,03,51,2.30
2016,01,19,03,52,2.30
2016,01,19,03,53,2.20
2016,01,19,03,54,2.20
2016,01,19,03,55,2.30
2016,01,19,03,56,2.30
2016,01,19,03,57,2.40
2016,01,19,03,58,2.40
2016,01,19,03,59,2.40
2016,01,19,04,00,2.50
2016,01,19,04,01,2.50
2016,01,19,04,02,2.40
2016,01,19,04,03,2.40
2016,01,19,04,04,2.30
2016,01,19,04,05,2.30
2016,01,19,04,06,2.20
2016,01,19,04,07,2.20
2016,01,19,04,08,2.10
2016,01,19,04,09,2.00
2016,01,19,04,10,2.00
2016,01,19,04,11,1.90
2016,01,19,04,12,1.90
2016,01,19,04,13,1.80
2016,01,19,04,14,1.80
2016,01,19,04,15,1.80
2016,01,19,04,16,1.80
2016,01,19,04,17,1.70
2016,01,19,04,18,1.70
2016,01,19,04,19,1.70
2016,01,19,04,20,1.80
2016,01,19,04,21,1.80
2016,01,19,04,22,1.80
2016,01,19,04,23,1.80
2016,01,19,04,24,1.80
2016,01,19,04,25,1.80
2016,01,19,04,26,1.90
2016,01,19,04,27,1.90
2016,01,19,04,28,1.90
2016,01,19,04,29,1.90
2016,01,19,04,30,1.90
2016,01,19,04,31,1.90
2016,01,19,04,32,1.90
2016,01,19,04,33,1.90
2016,01,19,04,34,1.90
2016,01,19,04,35,1.90
2016,01,19,04,36,1.90
2016,01,19,04,37,1.90
2016,01,19,04,38,1.80
2016,01,19,04,39,1.80
2016,01,19,04,40,1.80
2016,01,19,04,41,1.70
2016,01,19,04,42,1.70
2016,01,19,04,43,1.70
2016,01,19,04,44,1.70
2016,01,19,04,45,1.70
2016,01,19,04,46,1.70
2016,01,19,04,47,1.80
2016,01,19,04,48,1.90
2016,01,19,04,49,2.00
2016,01,19,04,50,2.10
2016,01,19,04,51,2.20
2016,01,19,04,52,2.20
2016,01,19,04,53,2.20
2016,01,19,04,54,2.20
2016,01,19,04,55,2.20
2016,01,19,04,56,2.30
2016,01,19,04,57,2.30
2016,01,19,04,58,2.30
2016,01,19,04,59,2.30
2016,01,19,05,00,2.30
2016,01,19,05,01,2.30
2016,01,19,05,02,2.40
2016,01,19,05,03,2.40
2016,01,19,05,04,2.40
2016,01,19,05,05,2.40
2016,01,19,05,06,2.40
2016,01,19,05,07,2.40
2016,01,19,05,08,2.40
2016,01,19,05,09,2.40
2016,01,19,05,10,2.40
2016,01,19,05,11,2.30
2016,01,19,05,12,2.30
2016,01,19,05,13,2.30
2016,01,19,05,14,2.30
2016,01,19,05,15,2.30
2016,01,19,05,16,2.20
2016,01,19,05,17,2.20
2016,01,19,05,18,2.20
2016,01,19,05,19,2.20
2016,01,19,05,20,2.20
2016,01,19,05,21,2.10
2016,01,19,05,22,2.10
2016,01,19,05,23,2.10
2016,01,19,05,24,2.10
2016,01,19,05,25,2.10
2016,01,19,05,26,2.10
2016,01,19,05,27,2.20
2016,01,19,05,28,2.20
2016,01,19,05,29,2.20
2016,01,19,05,30,2.30
2016,01,19,05,31,2.30
2016,01,19,05,32,2.30
2016,01,19,05,33,2.30
2016,01,19,05,34,2.30
2016,01,19,05,35,2.30
2016,01,19,05,36,2.30
2016,01,19,05,37,2.30
2016,01,19,05,38,2.30
2016,01,19,05,39,2.30
2016,01,19,05,40,2.30
2016,01,19,05,41,2.30
2016,01,19,05,42,2.30
2016,01,19,05,43,2.30
2016,01,19,05,44,2.30
2016,01,19,05,45,2.30
2016,01,19,05,46,2.30
2016,01,19,05,47,2.40
2016,01,19,05,48,2.50
2016,01,19,05,49,2.50
2016,01,19,05,50,2.60
2016,01,19,05,51,2.70
2016,01,19,05,52,2.80
2016,01,19,05,53,2.80
2016,01,19,05,54,2.80
2016,01,19,05,55,2.90
2016,01,19,05,56,2.80
2016,01,19,05,57,2.80
2016,01,19,05,58,2.80
2016,01,19,05,59,2.80
2016,01,19,06,00,2.80
2016,01,19,06,01,2.80
2016,01,19,06,02,2.80
2016,01,19,06,03,2.80
2016,01,19,06,04,2.80
2016,01,19,06,05,2.80
2016,01,19,06,06,2.80
2016,01,19,06,07,2.80
2016,01,19,06,08,2.80
2016,01,19,06,09,2.80
2016,01,19,06,10,2.70
2016,01,19,06,11,2.70
2016,01,19,06,12,2.70
2016,01,19,06,13,2.70
2016,01,19,06,14,2.70
2016,01,19,06,15,2.80
2016,01,19,06,16,2.80
2016,01,19,06,17,2.80
2016,01,19,06,18,2.90
2016,01,19,06,19,2.90
2016,01,19,06,20,2.90
2016,01,19,06,21,2.90
2016,01,19,06,22,2.90
2016,01,19,06,23,2.90
2016,01,19,06,24,2.90
2016,01,19,06,25,2.90
2016,01,19,06,26,2.90
2016,01,19,06,27,2.90
2016,01,19,06,28,2.90
2016,01,19,06,29,2.80
2016,01,19,06,30,2.80
2016,01,19,06,31,2.70
2016,01,19,06,32,2.70
2016,01,19,06,33,2.70
2016,01,19,06,34,2.60
2016,01,19,06,35,2.60
2016,01,19,06,36,2.60
2016,01,19,06,37,2.70
2016,01,19,06,38,2.70
2016,01,19,06,39,2.70
2016,01,19,06,40,2.80
2016,01,19,06,41,2.80
2016,01,19,06,42,2.90
2016,01,19,06,43,3.00
2016,01,19,06,44,3.10
2016,01,19,06,45,3.10
2016,01,19,06,46,3.10
2016,01,19,06,47,3.10
2016,01,19,06,48,3.10
2016,01,19,06,49,3.10
2016,01,19,06,50,3.00
2016,01,19,06,51,3.00
2016,01,19,06,52,2.90
2016,01,19,06,53,2.90
2016,01,19,06,54,2.90
2016,01,19,06,55,2.80
2016,01,19,06,56,2.80
2016,01,19,06,57,2.80
2016,01,19,06,58,2.90
2016,01,19,06,59,3.00
2016,01,19,07,00,3.10
2016,01,19,07,01,3.20
2016,01,19,07,02,3.30
2016,01,19,07,03,3.40
2016,01,19,07,04,3.40
2016,01,19,07,05,3.40
2016,01,19,07,06,3.40
2016,01,19,07,07,3.40
2016,01,19,07,08,3.30
2016,01,19,07,09,3.40
2016,01,19,07,10,3.40
2016,01,19,07,11,3.30
2016,01,19,07,12,3.30
2016,01,19,07,13,3.30
2016,01,19,07,14,3.30
2016,01,19,07,15,3.30
2016,01,19,07,16,3.30
2016,01,19,07,17,3.30
2016,01,19,07,18,3.30
2016,01,19,07,19,3.30
2016,01,19,07,20,3.20
2016,01,19,07,21,3.20
2016,01,19,07,22,3.20
2016,01,19,07,23,3.20
2016,01,19,07,24,3.40
2016,01,19,07,25,3.60
2016,01,19,07,26,3.80
2016,01,19,07,27,3.90
2016,01,19,07,28,3.90
2016,01,19,07,29,3.90
2016,01,19,07,30,3.80
2016,01,19,07,31,3.80
2016,01,19,07,32,3.80
2016,01,19,07,33,3.80
2016,01,19,07,34,3.90
2016,01,19,07,35,3.90
2016,01,19,07,36,4.00
2016,01,19,07,37,4.00
2016,01,19,07,38,4.00
2016,01,19,07,39,3.90
2016,01,19,07,40,3.90
2016,01,19,07,41,3.90
2016,01,19,07,42,3.90
2016,01,19,07,43,3.90
2016,01,19,07,44,3.90
2016,01,19,07,45,3.90
2016,01,19,07,46,3.90
2016,01,19,07,47,3.90
2016,01,19,07,48,3.90
2016,01,19,07,49,3.90
2016,01,19,07,50,3.90
2016,01,19,07,51,3.90
2016,01,19,07,52,3.90
2016,01,19,07,53,3.90
2016,01,19,07,54,4.00
2016,01,19,07,55,4.00
2016,01,19,07,56,4.10
2016,01,19,07,57,4.10
2016,01,19,07,58,4.20
2016,01,19,07,59,4.20
2016,01,19,08,00,4.20
2016,01,19,08,01,4.20
2016,01,19,08,02,4.20
2016,01,19,08,03,4.10
2016,01,19,08,04,4.10
2016,01,19,08,05,4.10
2016,01,19,08,06,4.20
2016,01,19,08,07,4.20
2016,01,19,08,08,4.30
2016,01,19,08,09,4.30
2016,01,19,08,10,4.40
2016,01,19,08,11,4.50
2016,01,19,08,12,4.50
2016,01,19,08,13,4.60
2016,01,19,08,14,4.60
2016,01,19,08,15,4.60
2016,01,19,08,16,4.70
2016,01,19,08,17,4.70
2016,01,19,08,18,4.80
2016,01,19,08,19,4.90
2016,01,19,08,20,4.90
2016,01,19,08,21,5.00
2016,01,19,08,22,5.00
2016,01,19,08,23,5.00
2016,01,19,08,24,5.10
2016,01,19,08,25,5.10
2016,01,19,08,26,5.20
2016,01,19,08,27,5.20
2016,01,19,08,28,5.20
2016,01,19,08,29,5.20
2016,01,19,08,30,5.20
2016,01,19,08,31,5.10
2016,01,19,08,32,5.20
2016,01,19,08,33,5.20
2016,01,19,08,34,5.20
2016,01,19,08,35,5.30
2016,01,19,08,36,5.30
2016,01,19,08,37,5.30
2016,01,19,08,38,5.40
2016,01,19,08,39,5.40
2016,01,19,08,40,5.40
2016,01,19,08,41,5.50
2016,01,19,08,42,5.60
2016,01,19,08,43,5.70
2016,01,19,08,44,5.80
2016,01,19,08,45,5.80
2016,01,19,08,46,5.90
2016,01,19,08,47,5.90
2016,01,19,08,48,6.00
2016,01,19,08,49,6.00
2016,01,19,08,50,6.10
2016,01,19,08,51,6.10
2016,01,19,08,52,6.20
2016,01,19,08,53,6.20
2016,01,19,08,54,6.20
2016,01,19,08,55,6.30
2016,01,19,08,56,6.40
2016,01,19,08,57,6.40
2016,01,19,08,58,6.40
2016,01,19,08,59,6.40
2016,01,19,09,00,6.50
2016,01,19,09,01,6.50
2016,01,19,09,02,6.50
2016,01,19,09,03,6.50
2016,01,19,09,04,6.50
2016,01,19,09,05,6.50
2016,01,19,09,06,6.50
2016,01,19,09,07,6.50
2016,01,19,09,08,6.60
2016,01,19,09,09,6.60
2016,01,19,09,10,6.60
2016,01,19,09,11,6.60
2016,01,19,09,12,6.60
2016,01,19,09,13,6.60
2016,01,19,09,14,6.60
2016,01,19,09,15,6.60
2016,01,19,09,16,6.60
2016,01,19,09,17,6.60
2016,01,19,09,18,6.70
2016,01,19,09,19,6.70
2016,01,19,09,20,6.70
2016,01,19,09,21,6.70
2016,01,19,09,22,6.70
2016,01,19,09,23,6.70
2016,01,19,09,24,6.70
2016,01,19,09,25,6.70
2016,01,19,09,26,6.70
2016,01,19,09,27,6.70
2016,01,19,09,28,6.70
2016,01,19,09,29,6.70
2016,01,19,09,30,6.70
2016,01,19,09,31,6.70
2016,01,19,09,32,6.70
2016,01,19,09,33,6.80
2016,01,19,09,34,6.80
2016,01,19,09,35,6.80
2016,01,19,09,36,6.80
2016,01,19,09,37,6.90
2016,01,19,09,38,6.90
2016,01,19,09,39,6.90
2016,01,19,09,40,6.90
2016,01,19,09,41,6.90
2016,01,19,09,42,6.90
2016,01,19,09,43,6.90
2016,01,19,09,44,6.90
2016,01,19,09,45,7.00
2016,01,19,09,46,7.00
2016,01,19,09,47,7.00
2016,01,19,09,48,7.10
2016,01,19,09,49,7.10
2016,01,19,09,50,7.10
2016,01,19,09,51,7.20
2016,01,19,09,52,7.20
2016,01,19,09,53,7.20
2016,01,19,09,54,7.20
2016,01,19,09,55,7.20
2016,01,19,09,56,7.20
2016,01,19,09,57,7.30
2016,01,19,09,58,7.30
2016,01,19,09,59,7.30
2016,01,19,10,00,7.30
2016,01,19,10,01,7.30
2016,01,19,10,02,7.30
2016,01,19,10,03,7.40
2016,01,19,10,04,7.40
2016,01,19,10,05,7.40
2016,01,19,10,06,7.40
2016,01,19,10,07,7.40
2016,01,19,10,08,7.40
2016,01,19,10,09,7.40
2016,01,19,10,10,7.40
2016,01,19,10,11,7.40
2016,01,19,10,12,7.40
2016,01,19,10,13,7.40
2016,01,19,10,14,7.40
2016,01,19,10,15,7.40
2016,01,19,10,16,7.30
2016,01,19,10,17,7.30
2016,01,19,10,18,7.30
2016,01,19,10,19,7.30
2016,01,19,10,20,7.30
2016,01,19,10,21,7.30
2016,01,19,10,22,7.30
2016,01,19,10,23,7.30
2016,01,19,10,24,7.30
2016,01,19,10,25,7.20
2016,01,19,10,26,7.20
2016,01,19,10,27,7.20
2016,01,19,10,28,7.20
2016,01,19,10,29,7.30
2016,01,19,10,30,7.30
2016,01,19,10,31,7.30
2016,01,19,10,32,7.30
2016,01,19,10,33,7.30
2016,01,19,10,34,7.30
2016,01,19,10,35,7.30
2016,01,19,10,36,7.30
2016,01,19,10,37,7.30
2016,01,19,10,38,7.30
2016,01,19,10,39,7.30
2016,01,19,10,40,7.30
2016,01,19,10,41,7.40
2016,01,19,10,42,7.40
2016,01,19,10,43,7.40
2016,01,19,10,44,7.40
2016,01,19,10,45,7.40
2016,01,19,10,46,7.50
2016,01,19,10,47,7.50
2016,01,19,10,48,7.50
2016,01,19,10,49,7.60
2016,01,19,10,50,7.60
2016,01,19,10,51,7.60
2016,01,19,10,52,7.60
2016,01,19,10,53,7.60
2016,01,19,10,54,7.70
2016,01,19,10,55,7.70
2016,01,19,10,56,7.70
2016,01,19,10,57,7.70
2016,01,19,10,58,7.80
2016,01,19,10,59,7.80
2016,01,19,11,00,7.80
2016,01,19,11,01,7.80
2016,01,19,11,02,7.80
2016,01,19,11,03,7.80
2016,01,19,11,04,7.90
2016,01,19,11,05,7.90
2016,01,19,11,06,7.90
2016,01,19,11,07,7.90
2016,01,19,11,08,7.90
2016,01,19,11,09,7.90
2016,01,19,11,10,8.00
2016,01,19,11,11,8.00
2016,01,19,11,12,8.10
2016,01,19,11,13,8.10
2016,01,19,11,14,8.10
2016,01,19,11,15,8.20
2016,01,19,11,16,8.20
2016,01,19,11,17,8.20
2016,01,19,11,18,8.30
2016,01,19,11,19,8.30
2016,01,19,11,20,8.30
2016,01,19,11,21,8.40
2016,01,19,11,22,8.40
2016,01,19,11,23,8.50
2016,01,19,11,24,8.50
2016,01,19,11,25,8.50
2016,01,19,11,26,8.50
2016,01,19,11,27,8.50
2016,01,19,11,28,8.60
2016,01,19,11,29,8.60
2016,01,19,11,30,8.60
2016,01,19,11,31,8.60
2016,01,19,11,32,8.50
2016,01,19,11,33,8.50
2016,01,19,11,34,8.40
2016,01,19,11,35,8.40
2016,01,19,11,36,8.40
2016,01,19,11,37,8.30
2016,01,19,11,38,8.30
2016,01,19,11,39,8.30
2016,01,19,11,40,8.30
2016,01,19,11,41,8.30
2016,01,19,11,42,8.30
2016,01,19,11,43,8.20
2016,01,19,11,44,8.20
2016,01,19,11,45,8.20
2016,01,19,11,46,8.20
2016,01,19,11,47,8.30
2016,01,19,11,48,8.30
2016,01,19,11,49,8.30
2016,01,19,11,50,8.20
2016,01,19,11,51,8.30
2016,01,19,11,52,8.30
2016,01,19,11,53,8.30
2016,01,19,11,54,8.30
2016,01,19,11,55,8.30
2016,01,19,11,56,8.30
2016,01,19,11,57,8.30
2016,01,19,11,58,8.30
2016,01,19,11,59,8.30
2016,01,19,12,00,8.30
2016,01,19,12,01,8.40
2016,01,19,12,02,8.40
2016,01,19,12,03,8.40
2016,01,19,12,04,8.40
2016,01,19,12,05,8.40
2016,01,19,12,06,8.40
2016,01,19,12,07,8.40
2016,01,19,12,08,8.40
2016,01,19,12,09,8.40
2016,01,19,12,10,8.40
2016,01,19,12,11,8.40
2016,01,19,12,12,8.40
2016,01,19,12,13,8.40
2016,01,19,12,14,8.40
2016,01,19,12,15,8.40
2016,01,19,12,16,8.40
2016,01,19,12,17,8.50
2016,01,19,12,18,8.40
2016,01,19,12,19,8.40
2016,01,19,12,20,8.40
2016,01,19,12,21,8.40
2016,01,19,12,22,8.40
2016,01,19,12,23,8.50
2016,01,19,12,24,8.50
2016,01,19,12,25,8.50
2016,01,19,12,26,8.50
2016,01,19,12,27,8.40
2016,01,19,12,28,8.40
2016,01,19,12,29,8.40
2016,01,19,12,30,8.40
2016,01,19,12,31,8.40
2016,01,19,12,32,8.50
2016,01,19,12,33,8.50
2016,01,19,12,34,8.50
2016,01,19,12,35,8.50
2016,01,19,12,36,8.60
2016,01,19,12,37,8.60
2016,01,19,12,38,8.60
2016,01,19,12,39,8.60
2016,01,19,12,40,8.60
2016,01,19,12,41,8.60
2016,01,19,12,42,8.50
2016,01,19,12,43,8.50
2016,01,19,12,44,8.50
2016,01,19,12,45,8.60
2016,01,19,12,46,8.60
2016,01,19,12,47,8.60
2016,01,19,12,48,8.60
2016,01,19,12,49,8.60
2016,01,19,12,50,8.50
2016,01,19,12,51,8.50
2016,01,19,12,52,8.50
2016,01,19,12,53,8.50
2016,01,19,12,54,8.50
2016,01,19,12,55,8.50
2016,01,19,12,56,8.50
2016,01,19,12,57,8.50
2016,01,19,12,58,8.50
2016,01,19,12,59,8.50
2016,01,19,13,00,8.50
2016,01,19,13,01,8.50
2016,01,19,13,02,8.50
2016,01,19,13,03,8.50
2016,01,19,13,04,8.50
2016,01,19,13,05,8.60
2016,01,19,13,06,8.60
2016,01,19,13,07,8.60
2016,01,19,13,08,8.60
2016,01,19,13,09,8.60
2016,01,19,13,10,8.60
2016,01,19,13,11,8.60
2016,01,19,13,12,8.60
2016,01,19,13,13,8.60
2016,01,19,13,14,8.60
2016,01,19,13,15,8.50
2016,01,19,13,16,8.50
2016,01,19,13,17,8.50
2016,01,19,13,18,8.50
2016,01,19,13,19,8.50
2016,01,19,13,20,8.50
2016,01,19,13,21,8.50
2016,01,19,13,22,8.50
2016,01,19,13,23,8.50
2016,01,19,13,24,8.50
2016,01,19,13,25,8.50
2016,01,19,13,26,8.50
2016,01,19,13,27,8.40
2016,01,19,13,28,8.40
2016,01,19,13,29,8.40
2016,01,19,13,30,8.40
2016,01,19,13,31,8.40
2016,01,19,13,32,8.40
2016,01,19,13,33,8.30
2016,01,19,13,34,8.30
2016,01,19,13,35,8.30
2016,01,19,13,36,8.30
2016,01,19,13,37,8.30
2016,01,19,13,38,8.30
2016,01,19,13,39,8.30
2016,01,19,13,40,8.30
2016,01,19,13,41,8.30
2016,01,19,13,42,8.30
2016,01,19,13,43,8.40
2016,01,19,13,44,8.40
2016,01,19,13,45,8.40
2016,01,19,13,46,8.40
2016,01,19,13,47,8.40
2016,01,19,13,48,8.40
2016,01,19,13,49,8.40
2016,01,19,13,50,8.50
2016,01,19,13,51,8.50
2016,01,19,13,52,8.40
2016,01,19,13,53,8.40
2016,01,19,13,54,8.40
2016,01,19,13,55,8.30
2016,01,19,13,56,8.30
2016,01,19,13,57,8.30
2016,01,19,13,58,8.30
2016,01,19,13,59,8.30
2016,01,19,14,00,8.30
2016,01,19,14,01,8.30
2016,01,19,14,02,8.30
2016,01,19,14,03,8.30
2016,01,19,14,04,8.30
2016,01,19,14,05,8.30
2016,01,19,14,06,8.30
2016,01,19,14,07,8.30
2016,01,19,14,08,8.30
2016,01,19,14,09,8.30
2016,01,19,14,10,8.30
2016,01,19,14,11,8.30
2016,01,19,14,12,8.30
2016,01,19,14,13,8.30
2016,01,19,14,14,8.30
2016,01,19,14,15,8.20
2016,01,19,14,16,8.20
2016,01,19,14,17,8.20
2016,01,19,14,18,8.30
2016,01,19,14,19,8.30
2016,01,19,14,20,8.30
2016,01,19,14,21,8.30
2016,01,19,14,22,8.30
2016,01,19,14,23,8.30
2016,01,19,14,24,8.30
2016,01,19,14,25,8.30
2016,01,19,14,26,8.30
2016,01,19,14,27,8.30
2016,01,19,14,28,8.30
2016,01,19,14,29,8.30
2016,01,19,14,30,8.30
2016,01,19,14,31,8.30
2016,01,19,14,32,8.30
2016,01,19,14,33,8.30
2016,01,19,14,34,8.30
2016,01,19,14,35,8.30
2016,01,19,14,36,8.30
2016,01,19,14,37,8.30
2016,01,19,14,38,8.30
2016,01,19,14,39,8.30
2016,01,19,14,40,8.30
2016,01,19,14,41,8.30
2016,01,19,14,42,8.30
2016,01,19,14,43,8.30
2016,01,19,14,44,8.30
2016,01,19,14,45,8.30
2016,01,19,14,46,8.30
2016,01,19,14,47,8.30
2016,01,19,14,48,8.30
2016,01,19,14,49,8.30
2016,01,19,14,50,8.30
2016,01,19,14,51,8.30
2016,01,19,14,52,8.30
2016,01,19,14,53,8.30
2016,01,19,14,54,8.30
2016,01,19,14,55,8.20
2016,01,19,14,56,8.20
2016,01,19,14,57,8.20
2016,01,19,14,58,8.20
2016,01,19,14,59,8.20
2016,01,19,15,00,8.20
2016,01,19,15,01,8.20
2016,01,19,15,02,8.20
2016,01,19,15,03,8.20
2016,01,19,15,04,8.20
2016,01,19,15,05,8.20
2016,01,19,15,06,8.20
2016,01,19,15,07,8.20
2016,01,19,15,08,8.20
2016,01,19,15,09,8.20
2016,01,19,15,10,8.20
2016,01,19,15,11,8.20
2016,01,19,15,12,8.20
2016,01,19,15,13,8.20
2016,01,19,15,14,8.20
2016,01,19,15,15,8.20
2016,01,19,15,16,8.20
2016,01,19,15,17,8.20
2016,01,19,15,18,8.20
2016,01,19,15,19,8.10
2016,01,19,15,20,8.10
2016,01,19,15,21,8.10
2016,01,19,15,22,8.10
2016,01,19,15,23,8.10
2016,01,19,15,24,8.10
2016,01,19,15,25,8.10
2016,01,19,15,26,8.10
2016,01,19,15,27,8.10
2016,01,19,15,28,8.10
2016,01,19,15,29,8.10
2016,01,19,15,30,8.10
2016,01,19,15,31,8.10
2016,01,19,15,32,8.10
2016,01,19,15,33,8.10
2016,01,19,15,34,8.10
2016,01,19,15,35,8.10
2016,01,19,15,36,8.10
2016,01,19,15,37,8.10
2016,01,19,15,38,8.10
2016,01,19,15,39,8.10
2016,01,19,15,40,8.10
2016,01,19,15,41,8.10
2016,01,19,15,42,8.10
2016,01,19,15,43,8.10
2016,01,19,15,44,8.10
2016,01,19,15,45,8.10
2016,01,19,15,46,8.10
2016,01,19,15,47,8.10
2016,01,19,15,48,8.10
2016,01,19,15,49,8.10
2016,01,19,15,50,8.10
2016,01,19,15,51,8.10
2016,01,19,15,52,8.10
2016,01,19,15,53,8.10
2016,01,19,15,54,8.10
2016,01,19,15,55,8.10
2016,01,19,15,56,8.10
2016,01,19,15,57,8.10
2016,01,19,15,58,8.10
2016,01,19,15,59,8.10
2016,01,19,16,00,8.10
2016,01,19,16,01,8.10
2016,01,19,16,02,8.10
2016,01,19,16,03,8.10
2016,01,19,16,04,8.10
2016,01,19,16,05,8.10
2016,01,19,16,06,8.10
2016,01,19,16,07,8.10
2016,01,19,16,08,8.10
2016,01,19,16,09,8.10
2016,01,19,16,10,8.00
2016,01,19,16,11,8.00
2016,01,19,16,12,8.00
2016,01,19,16,13,8.00
2016,01,19,16,14,8.00
2016,01,19,16,15,8.00
2016,01,19,16,16,8.00
2016,01,19,16,17,8.00
2016,01,19,16,18,8.00
2016,01,19,16,19,8.00
2016,01,19,16,20,8.00
2016,01,19,16,21,8.00
2016,01,19,16,22,8.00
2016,01,19,16,23,7.90
2016,01,19,16,24,7.90
2016,01,19,16,25,7.90
2016,01,19,16,26,7.90
2016,01,19,16,27,7.90
2016,01,19,16,28,7.90
2016,01,19,16,29,7.90
2016,01,19,16,30,7.90
2016,01,19,16,31,7.90
2016,01,19,16,32,7.90
2016,01,19,16,33,7.90
2016,01,19,16,34,7.90
2016,01,19,16,35,7.90
2016,01,19,16,36,7.80
2016,01,19,16,37,7.80
2016,01,19,16,38,7.80
2016,01,19,16,39,7.80
2016,01,19,16,40,7.80
2016,01,19,16,41,7.80
2016,01,19,16,42,7.80
2016,01,19,16,43,7.80
2016,01,19,16,44,7.80
2016,01,19,16,45,7.80
2016,01,19,16,46,7.80
2016,01,19,16,47,7.80
2016,01,19,16,48,7.80
2016,01,19,16,49,7.80
2016,01,19,16,50,7.70
2016,01,19,16,51,7.80
2016,01,19,16,52,7.70
2016,01,19,16,53,7.70
2016,01,19,16,54,7.70
2016,01,19,16,55,7.70
2016,01,19,16,56,7.70
2016,01,19,16,57,7.70
2016,01,19,16,58,7.70
2016,01,19,16,59,7.70
2016,01,19,17,00,7.70
2016,01,19,17,01,7.70
2016,01,19,17,02,7.70
2016,01,19,17,03,7.70
2016,01,19,17,04,7.70
2016,01,19,17,05,7.70
2016,01,19,17,06,7.70
2016,01,19,17,07,7.70
2016,01,19,17,08,7.70
2016,01,19,17,09,7.70
2016,01,19,17,10,7.70
2016,01,19,17,11,7.70
2016,01,19,17,12,7.70
2016,01,19,17,13,7.70
2016,01,19,17,14,7.70
2016,01,19,17,15,7.70
2016,01,19,17,16,7.70
2016,01,19,17,17,7.70
2016,01,19,17,18,7.70
2016,01,19,17,19,7.70
2016,01,19,17,20,7.70
2016,01,19,17,21,7.70
2016,01,19,17,22,7.60
2016,01,19,17,23,7.60
2016,01,19,17,24,7.60
2016,01,19,17,25,7.60
2016,01,19,17,26,7.60
2016,01,19,17,27,7.60
2016,01,19,17,28,7.60
2016,01,19,17,29,7.60
2016,01,19,17,30,7.60
2016,01,19,17,31,7.60
2016,01,19,17,32,7.60
2016,01,19,17,33,7.60
2016,01,19,17,34,7.60
2016,01,19,17,35,7.60
2016,01,19,17,36,7.60
2016,01,19,17,37,7.60
2016,01,19,17,38,7.60
2016,01,19,17,39,7.60
2016,01,19,17,40,7.60
2016,01,19,17,41,7.60
2016,01,19,17,42,7.60
2016,01,19,17,43,7.60
2016,01,19,17,44,7.60
2016,01,19,17,45,7.60
2016,01,19,17,46,7.60
2016,01,19,17,47,7.60
2016,01,19,17,48,7.50
2016,01,19,17,49,7.60
2016,01,19,17,50,7.50
2016,01,19,17,51,7.50
2016,01,19,17,52,7.50
2016,01,19,17,53,7.50
2016,01,19,17,54,7.50
2016,01,19,17,55,7.50
2016,01,19,17,56,7.50
2016,01,19,17,57,7.50
2016,01,19,17,58,7.50
2016,01,19,17,59,7.40
2016,01,19,18,00,7.40
2016,01,19,18,01,7.40
2016,01,19,18,02,7.40
2016,01,19,18,03,7.40
2016,01,19,18,04,7.40
2016,01,19,18,05,7.40
2016,01,19,18,06,7.40